This is the latest recevied weather packets stored in our database for station/object IW1CBG-3. If no packets are shown the sender has not sent any weather packets the latest 10 day(s).
| Time | Temp. | Humidity | Pressure | Rain* | Wind** | Luminosity | Snow |
|---|---|---|---|---|---|---|---|
| 1777911468 | 13.89° C | 71% | 1027.7 hPa | 0 mm | - | - | - |
| 1777910868 | 13.89° C | 74% | 1028 hPa | 0 mm | - | - | - |
| 1777910269 | 13.89° C | 75% | 1027.9 hPa | 0 mm | - | - | - |
| 1777909668 | 14.44° C | 74% | 1028.1 hPa | 0 mm | - | - | - |
| 1777909067 | 14.44° C | 74% | 1027.9 hPa | 0 mm | - | - | - |
| 1777908467 | 15° C | 74% | 1027.5 hPa | 0 mm | - | - | - |
| 1777907867 | 15° C | 71% | 1027.4 hPa | 0 mm | - | - | - |
| 1777907268 | 15° C | 71% | 1027.3 hPa | 0 mm | - | - | - |
| 1777906669 | 15° C | 71% | 1027.7 hPa | 0 mm | - | - | - |
| 1777906068 | 15° C | 73% | 1027.5 hPa | 0 mm | - | - | - |
| 1777905468 | 15° C | 75% | 1027.9 hPa | 0 mm | - | - | - |
| 1777904868 | 15.56° C | 75% | 1027.7 hPa | 0 mm | - | - | - |
| 1777904267 | 15° C | 76% | 1027.8 hPa | 0 mm | - | - | - |
| 1777903670 | 14.44° C | 78% | 1027.9 hPa | 0 mm | - | - | - |
| 1777903067 | 14.44° C | 78% | 1028.3 hPa | 0 mm | - | - | - |
| 1777902468 | 14.44° C | 78% | 1028.4 hPa | 0 mm | - | - | - |
| 1777901868 | 14.44° C | 78% | 1028.5 hPa | 0 mm | - | - | - |
| 1777901268 | 14.44° C | 79% | 1028.7 hPa | 0 mm | - | - | - |
| 1777900668 | 14.44° C | 78% | 1028.6 hPa | 0 mm | - | - | - |
| 1777900068 | 14.44° C | 79% | 1028.5 hPa | 0 mm | - | - | - |
| 1777899467 | 14.44° C | 78% | 1028.6 hPa | 0 mm | - | - | - |
| 1777898268 | 14.44° C | 79% | 1028.6 hPa | 0 mm | - | - | - |
| 1777897668 | 13.89° C | 80% | 1028.8 hPa | 0 mm | - | - | - |
| 1777897068 | 13.89° C | 81% | 1029.1 hPa | 0 mm | - | - | - |
| 1777896468 | 13.89° C | 80% | 1028.7 hPa | 0 mm | - | - | - |
* Rain latest hour (hover to see other rain measurements)
** Current wind speed in m/s (hover to see current wind gust speed)